User: anonymous   Login
Location: Unspecified
(0.0000°N, 0.0000°E)
Time: 00:13:47
(UTC+01:00)
Language:

CZ-4 DEB - Orbit

View from above orbital plane
View from above orbital plane
View from above satellite
View from above satellite

Ground track
Ground track

The orbit data is extracted from the following two-line orbital elements,

1 29508U 06046D   16042.67363479  .00039802  00000-0  95784-3 0  9996
2 29508  97.6649  76.2253 0002487  11.0446 349.0854 15.41181047509457
Epoch (UTC): 11 February 2016 16:10:02
Eccentricity: 0.0002487
inclination: 97.6649°
perigee height: 441 km
apogee height: 444 km
right ascension of ascending node: 76.2253°
argument of perigee: 11.0446°
revolutions per day: 15.41181047
mean anomaly at epoch: 349.0854°
orbit number at epoch: 50945

The dashed part of the orbit path shows where the satellite is in the earth's shadow,  

DLR